sat.trackr.live / text

‹ back to catalog

STARLINK-4707

NORAD 53721 · 2022-107X

PAYLOAD ACTIVE UNKNOWN

§ Identity

Operator
Country
US
Launch date
2022-09-05
Launch site
AFETR
Launch vehicle
Mass (kg)
RCS (m²)

Purposes: comms

External: N2YO · Heavens-Above · Gunter

§ Orbital elements

Epoch: 2026-09-20T21:11:21.374592Z

Period
93.85 min
Inclination
53.1595°
Eccentricity
0.0001196
Mean motion
15.34379355 rev/d
Perigee alt
461.9 km
Apogee alt
463.6 km
Semi-major
6,840.9 km
B*
2.1044e-5
RAAN
83.6967°
Arg perigee
87.5674°
Mean anomaly
272.5466°
Rev number
22,407

§ Raw data

STARLINK-47071 53721U 22107X   26263.88288628  .00000334  00000+0  21044-4 0  99932 53721  53.1595  83.6967 0001196  87.5674 272.5466 15.34379355224073

JSON: /api/v1/satellites/53721 · /tle

For live sub-satellite position, see the globe view (requires WebGL).

§ Visibility from observer

Set your observer location to see the next 7 days of passes ≥ 10°. The values pass through the URL so the page stays shareable.

No JS? Fill the form by hand. The geolocation button needs JavaScript.